Alturas, CA

6:18 AM PST on December 11, 2019 (GMT -0800)
Alturas Municipal

Weather History for KAAT - October, 2019

Change the Weather History Date:

Friday, October 4, 2019

  Actual Average Record
Temperature  
Mean Temperature 40 °F 51 °F  
Max Temperature 53 °F 71 °F 92 °F (1917)
Min Temperature 28 °F 30 °F 16 °F (1989)
Degree Days  
Heating Degree Days 24 14  
Month to date heating degree days 88 55  
Since 1 July heating degree days 394 432  
Cooling Degree Days 0 0  
Month to date cooling degree days 0 0  
Year to date cooling degree days 217 156  
Moisture  
Dew Point 32 °F    
Average Humidity 76    
Maximum Humidity 100    
Minimum Humidity 41    
Precipitation  
Precipitation T in 0.02 in 0.90 in (2018)
Month to date precipitation 0.03 0.07  
Year to date precipitation 12.26 9.73  
Sea Level Pressure  
Sea Level Pressure 30.20 in    
Wind  
Wind Speed 2 mph ()    
Max Wind Speed 8 mph    
Max Gust Speed 11 mph    
Visibility 10.0 miles    
Events Rain    
T = Trace of Precipitation, MM = Missing Value Source: Averaged Metar Reports

Daily Weather History Graph

Daily Weather History Graph

Search for Another Location

Airport or City:

Astronomy

Oct. 04, 2019 Rise Set
Actual Time 7:02 AM PDT 6:39 PM PDT
Civil Twilight 6:34 AM PDT 7:06 PM PDT
Nautical Twilight 6:02 AM PDT 7:38 PM PDT
Astronomical Twilight 5:30 AM PDT 8:11 PM PDT
Moon 1:42 PM PDT (10/4) 11:08 PM PDT (10/4)
Length of Visible Light 12h 32m
Length of Day
11h 37m
Waxing Crescent, 41% of the Moon is Illuminated
Oct 4
Waxing Crescent
Oct 5
First Quarter
Oct 13
Full
Oct 21
Last Quarter
Oct 27
New

Hourly Weather History & Observations

Time (PDT) Temp. Windchill Dew Point Humidity Pressure Visibility Wind Dir Wind Speed Gust Speed Precip Events Conditions
12:55 AM 39.0 °F 35.7 °F 37.0 °F 93% 30.04 in 10.0 mi SW 4.6 mph - 0.02 in   Overcast
1:55 AM 37.9 °F - 36.0 °F 93% 30.06 in 10.0 mi Calm Calm - N/A   Overcast
2:17 AM 37.4 °F - 35.6 °F 93% 30.09 in 10.0 mi Calm Calm - N/A   Overcast
2:39 AM 37.9 °F - 36.0 °F 93% 30.10 in 10.0 mi Calm Calm - 0.00 in Rain Light Rain
2:55 AM 37.9 °F - 36.0 °F 93% 30.06 in 10.0 mi Calm Calm - 0.00 in   Overcast
3:31 AM 37.9 °F - 36.0 °F 93% 30.10 in 10.0 mi Calm Calm - N/A   Overcast
3:55 AM 37.9 °F - 37.0 °F 97% 30.07 in 10.0 mi Calm Calm - N/A   Overcast
4:35 AM 37.0 °F 34.5 °F 35.1 °F 93% 30.11 in 10.0 mi West 3.5 mph - N/A   Mostly Cloudy
4:55 AM 36.0 °F - 34.0 °F 93% 30.09 in 10.0 mi Calm Calm - N/A   Mostly Cloudy
5:55 AM 35.1 °F - 33.1 °F 92% 30.11 in 10.0 mi Calm Calm - N/A   Partly Cloudy
6:55 AM 32.0 °F - 30.9 °F 96% 30.17 in 10.0 mi Calm Calm - N/A   Partly Cloudy
7:55 AM 34.0 °F 31.0 °F 33.1 °F 96% 30.19 in 10.0 mi NW 3.5 mph - N/A   Clear
8:42 AM 39.0 °F - 36.0 °F 89% 30.20 in 10.0 mi Calm Calm - N/A   Overcast
8:55 AM 39.0 °F - 36.0 °F 89% 30.22 in 10.0 mi Calm Calm - N/A   Scattered Clouds
9:55 AM 41.0 °F 39.0 °F 36.0 °F 82% 30.22 in 10.0 mi East 3.5 mph - N/A   Overcast
10:30 AM 43.0 °F - 35.1 °F 74% 30.24 in 10.0 mi Calm Calm - N/A   Overcast
10:55 AM 42.1 °F 39.2 °F 32.0 °F 67% 30.25 in 10.0 mi SW 4.6 mph - N/A   Overcast
11:04 AM 43.0 °F 40.3 °F 32.0 °F 65% 30.25 in 10.0 mi SW 4.6 mph - N/A   Overcast
11:44 AM 43.0 °F 41.3 °F 33.1 °F 68% 30.25 in 10.0 mi Variable 3.5 mph - 0.00 in   Overcast
11:55 AM 44.1 °F 42.5 °F 33.1 °F 65% 30.25 in 10.0 mi Variable 3.5 mph - 0.00 in   Overcast
12:55 PM 46.0 °F 44.8 °F 30.9 °F 56% 30.25 in 10.0 mi SW 3.5 mph - N/A   Overcast
1:55 PM 48.9 °F - 28.9 °F 46% 30.24 in 10.0 mi WSW 4.6 mph - N/A   Scattered Clouds
2:55 PM 51.1 °F - 28.9 °F 43% 30.24 in 10.0 mi Calm Calm - N/A   Mostly Cloudy
3:55 PM 52.0 °F - 28.9 °F 41% 30.23 in 10.0 mi NNW 4.6 mph - N/A   Clear
4:55 PM 51.1 °F - 28.9 °F 43% 30.22 in 10.0 mi SSE 5.8 mph - N/A   Clear
5:55 PM 50.0 °F - 28.0 °F 43% 30.24 in 10.0 mi East 4.6 mph - N/A   Clear
6:55 PM 46.0 °F - 28.9 °F 51% 30.27 in 10.0 mi Calm Calm - N/A   Clear
7:55 PM 41.0 °F 39.0 °F 30.0 °F 65% 30.27 in 10.0 mi East 3.5 mph - N/A   Clear
8:55 PM 36.0 °F - 28.9 °F 76% 30.29 in 10.0 mi Calm Calm - N/A   Clear
9:55 PM 33.1 °F 28.7 °F 28.9 °F 85% 30.31 in 10.0 mi NNW 4.6 mph - N/A   Clear
10:55 PM 30.0 °F 24.1 °F 27.0 °F 88% 30.32 in 10.0 mi South 5.8 mph - N/A   Clear
11:55 PM 30.0 °F 26.5 °F 26.1 °F 85% 30.33 in 10.0 mi NNE 3.5 mph - N/A   Clear